EW5923 Weather Reports


Display with metric or nautical units.
time (UTC)temp
F
wind
direction
speed
MPH
gust
MPH
rain 1hr
in
rain 24hr
in
rain mn
in
humidity
%
barometer
mb
20260510175143 96 360 4.0 11.0 0.00 0.00 0.00 9 1010.1
20260510174142 95 1 3.0 6.0 0.00 0.00 0.00 9 1010.1
20260510173122 94 2 4.0 8.0 0.00 0.00 0.00 9 1010.2
20260510172142 94 355 4.0 8.0 0.00 0.00 0.00 9 1010.1
20260510171121 94 9 4.0 8.0 0.00 0.00 0.00 10 1010.2
20260510170122 92 1 3.0 6.0 0.00 0.00 0.00 10 1010.1
20260510165121 92 12 4.0 8.0 0.00 0.00 0.00 10 1010.1
20260510164143 92 8 3.0 6.0 0.00 0.00 0.00 10 1010.1
20260510163122 92 8 3.0 8.0 0.00 0.00 0.00 10 1010.1
20260510162122 92 2 2.0 4.0 0.00 0.00 0.00 11 1010.1
20260510161121 92 12 2.0 5.0 0.00 0.00 0.00 11 1010.1
20260510160121 90 3 3.0 6.0 0.00 0.00 0.00 11 1010.0
20260510155143 89 6 2.0 5.0 0.00 0.00 0.00 12 1010.0
20260510154123 89 2 3.0 5.0 0.00 0.00 0.00 12 1009.9
20260510153122 88 1 3.0 6.0 0.00 0.00 0.00 12 1009.8
20260510152143 87 10 3.0 5.0 0.00 0.00 0.00 12 1010.0
20260510151143 87 9 3.0 6.0 0.00 0.00 0.00 13 1009.9
20260510150143 86 15 4.0 6.0 0.00 0.00 0.00 13 1009.9
20260510145125 85 2 4.0 8.0 0.00 0.00 0.00 13 1009.9
20260510144121 85 360 3.0 6.0 0.00 0.00 0.00 13 1010.0
20260510143143 84 360 2.0 4.0 0.00 0.00 0.00 14 1009.9
20260510142121 83 360 3.0 5.0 0.00 0.00 0.00 15 1009.8
20260510141122 81 360 1.0 2.0 0.00 0.00 0.00 16 1009.7
20260510140122 81 360 1.0 2.0 0.00 0.00 0.00 17 1009.6
20260510135143 80 360 0.0 2.0 0.00 0.00 0.00 17 1009.6
20260510134122 79 360 1.0 3.0 0.00 0.00 0.00 17 1009.5
20260510133122 77 7 3.0 6.0 0.00 0.00 0.00 17 1009.4
20260510132122 75 2 3.0 5.0 0.00 0.00 0.00 19 1009.2
20260510131122 74 20 3.0 4.0 0.00 0.00 0.00 19 1009.0
20260510130143 74 360 5.0 8.0 0.00 0.00 0.00 18 1009.0
20260510125122 71 2 5.0 9.0 0.00 0.00 0.00 19 1009.1
20260510124122 72 2 2.0 4.0 0.00 0.00 0.00 19 1008.8
20260510123143 72 4 2.0 5.0 0.00 0.00 0.00 19 1008.8
20260510122122 70 0 4.0 6.0 0.00 0.00 0.00 20 1008.6
20260510121122 68 3 5.0 6.0 0.00 0.00 0.00 20 1008.6
20260510120122 67 360 3.0 5.0 0.00 0.00 0.00 21 1008.5
20260510115143 68 360 2.0 4.0 0.00 0.00 0.00 20 1008.6
20260510114122 69 360 2.0 3.0 0.00 0.00 0.00 20 1008.5
20260510113122 70 0 3.0 4.0 0.00 0.00 0.00 19 1008.4
20260510112122 69 6 5.0 6.0 0.00 0.00 0.00 19 1008.4
20260510111122 70 0 3.0 4.0 0.00 0.00 0.00 19 1008.3
20260510110122 72 4 2.0 4.0 0.00 0.00 0.00 18 1008.2
20260510105122 71 6 2.0 4.0 0.00 0.00 0.00 20 1008.2
20260510104122 70 15 3.0 4.0 0.00 0.00 0.00 20 1008.1
20260510103122 71 25 2.0 4.0 0.00 0.00 0.00 20 1008.1
20260510102143 72 112 2.0 4.0 0.00 0.00 0.00 20 1008.0
20260510101122 70 360 0.0 2.0 0.00 0.00 0.00 20 1008.0
20260510100122 69 360 3.0 4.0 0.00 0.00 0.00 20 1007.7
20260510095122 69 2 2.0 3.0 0.00 0.00 0.00 20 1007.7
20260510094122 70 0 3.0 4.0 0.00 0.00 0.00 19 1007.7
20260510093123 70 0 2.0 3.0 0.00 0.00 0.00 20 1007.6
20260510092123 71 0 2.0 4.0 0.00 0.00 0.00 20 1007.6
20260510091122 71 1 2.0 4.0 0.00 0.00 0.00 20 1007.6
20260510090122 72 360 0.0 1.0 0.00 0.00 0.00 20 1007.5
20260510085122 72 1 3.0 4.0 0.00 0.00 0.00 19 1007.5
20260510084122 73 0 2.0 3.0 0.00 0.00 0.00 19 1007.4
20260510083122 74 360 1.0 4.0 0.00 0.00 0.00 19 1007.3
20260510082122 74 17 2.0 4.0 0.00 0.00 0.00 19 1007.3
20260510081122 73 360 2.0 3.0 0.00 0.00 0.00 20 1007.3
20260510080122 73 360 2.0 3.0 0.00 0.00 0.00 20 1007.3
20260510075122 74 360 2.0 3.0 0.00 0.00 0.00 19 1007.3
20260510074122 76 360 1.0 2.0 0.00 0.00 0.00 18 1007.5
20260510073122 77 360 1.0 3.0 0.00 0.00 0.00 17 1007.5
20260510072122 80 360 0.0 1.0 0.00 0.00 0.00 15 1007.3
20260510071143 82 358 1.0 2.0 0.00 0.00 0.00 14 1007.3
20260510070122 84 360 2.0 4.0 0.00 0.00 0.00 13 1007.3
20260510065143 85 358 3.0 5.0 0.00 0.00 0.00 13 1007.3
20260510064122 85 359 4.0 8.0 0.00 0.00 0.00 13 1007.2
20260510063122 84 354 4.0 6.0 0.00 0.00 0.00 13 1007.2
20260510062122 84 359 3.0 8.0 0.00 0.00 0.00 13 1007.1
20260510061122 84 359 4.0 6.0 0.00 0.00 0.00 13 1007.1
20260510060121 83 357 3.0 5.0 0.00 0.00 0.00 14 1007.0
20260510055121 84 359 2.0 3.0 0.00 0.00 0.00 13 1006.9
20260510054121 86 358 2.0 4.0 0.00 0.00 0.00 12 1006.9
20260510053143 86 358 4.0 6.0 0.00 0.00 0.00 12 1006.9
20260510052142 86 354 4.0 8.0 0.00 0.00 0.00 12 1006.8
20260510051121 86 354 4.0 5.0 0.00 0.00 0.00 12 1006.7
20260510050121 86 359 4.0 6.0 0.00 0.00 0.00 12 1006.7
20260510045121 85 357 3.0 5.0 0.00 0.00 0.00 12 1006.7
20260510044121 85 356 4.0 5.0 0.00 0.00 0.00 12 1006.5
20260510043121 85 356 4.0 6.0 0.00 0.00 0.00 13 1006.4
20260510042121 83 358 3.0 5.0 0.00 0.00 0.00 13 1006.4
20260510041121 81 360 2.0 4.0 0.00 0.00 0.00 15 1006.4
20260510040121 82 360 2.0 3.0 0.00 0.00 0.00 15 1006.1
20260510035121 83 360 2.0 3.0 0.00 0.00 0.00 15 1006.0
20260510034121 85 360 2.0 3.0 0.00 0.00 0.00 14 1006.0
20260510033121 86 360 2.0 3.0 0.00 0.00 0.00 14 1005.9
20260510032121 87 360 1.0 3.0 0.00 0.00 0.00 13 1005.8
20260510031121 90 360 2.0 3.0 0.00 0.00 0.00 12 1005.6
20260510030121 92 348 3.0 5.0 0.00 0.00 0.00 11 1005.5
20260510025121 93 358 3.0 6.0 0.00 0.00 0.00 11 1005.4
20260510024121 94 360 4.0 6.0 0.00 0.00 0.00 10 1005.2
20260510023121 95 359 5.0 10.0 0.00 0.00 0.00 10 1005.1
20260510022121 95 357 6.0 10.0 0.00 0.00 0.00 10 1005.0
20260510021121 96 360 5.0 9.0 0.00 0.00 0.00 10 1005.0
20260510020121 96 359 8.0 13.0 0.00 0.00 0.00 10 1005.1
20260510015122 97 357 8.0 13.0 0.00 0.00 0.00 9 1005.1
20260510014121 97 360 7.0 13.0 0.00 0.00 0.00 9 1004.7
20260510013142 98 359 9.0 14.0 0.00 0.00 0.00 9 1004.8
20260510012121 98 352 7.0 13.0 0.00 0.00 0.00 9 1004.9
20260510011121 98 360 9.0 15.0 0.00 0.00 0.00 9 1005.0
20260510010121 99 358 6.0 12.0 0.00 0.00 0.00 9 1005.0
20260510005121 99 360 10.0 10.0 0.00 0.00 0.00 9 1005.1
20260510004121 99 359 8.0 13.0 0.00 0.00 0.00 9 1005.0
20260510003121 99 357 8.0 13.0 0.00 0.00 0.00 9 1005.2
20260510002121 100 359 9.0 16.0 0.00 0.00 0.00 8 1005.2
20260510001121 100 359 8.0 17.0 0.00 0.00 0.00 8 1005.1
20260510000142 100 359 6.0 10.0 0.00 0.00 0.00 8 1005.2
20260509235142 100 360 8.0 18.0 0.00 0.00 0.00 8 1005.2
20260509234121 100 359 7.0 11.0 0.00 0.00 0.00 8 1005.4
20260509233121 100 360 8.0 16.0 0.00 0.00 0.00 8 1005.3
20260509232121 100 356 9.0 14.0 0.00 0.00 0.00 8 1005.4
20260509231121 100 358 10.0 14.0 0.00 0.00 0.00 8 1005.5
20260509230121 100 357 10.0 16.0 0.00 0.00 0.00 8 1005.5
20260509225121 100 359 11.0 16.0 0.00 0.00 0.00 8 1005.9
20260509224121 100 359 7.0 17.0 0.00 0.00 0.00 9 1006.0
20260509223142 100 360 9.0 15.0 0.00 0.00 0.00 9 1006.1
20260509222121 101 360 7.0 13.0 0.00 0.00 0.00 9 1006.2
20260509221121 100 360 9.0 15.0 0.00 0.00 0.00 9 1006.4
20260509220122 100 359 9.0 13.0 0.00 0.00 0.00 9 1006.3
20260509215121 100 358 7.0 13.0 0.00 0.00 0.00 9 1006.5
20260509214121 100 359 11.0 18.0 0.00 0.00 0.00 9 1006.7
20260509213121 100 359 10.0 14.0 0.00 0.00 0.00 9 1007.0
20260509212121 99 359 7.0 14.0 0.00 0.00 0.00 10 1007.0
20260509211121 99 358 7.0 13.0 0.00 0.00 0.00 9 1007.3
20260509210122 99 360 10.0 16.0 0.00 0.00 0.00 9 1007.6
20260509205142 99 356 8.0 12.0 0.00 0.00 0.00 9 1007.6
20260509204121 98 359 8.0 13.0 0.00 0.00 0.00 10 1007.9
20260509203121 99 360 9.0 14.0 0.00 0.00 0.00 12 1007.9
20260509202121 97 359 5.0 11.0 0.00 0.00 0.00 12 1008.1
20260509201121 97 359 7.0 14.0 0.00 0.00 0.00 12 1008.3
20260509200122 97 357 7.0 13.0 0.00 0.00 0.00 12 1008.4
20260509195121 97 360 6.0 11.0 0.00 0.00 0.00 12 1008.6
20260509194121 97 358 4.0 8.0 0.00 0.00 0.00 11 1008.5
20260509193121 96 359 6.0 9.0 0.00 0.00 0.00 12 1008.7
20260509192121 95 359 6.0 10.0 0.00 0.00 0.00 12 1008.8
20260509191143 95 2 3.0 9.0 0.00 0.00 0.00 12 1008.9
20260509190121 95 359 5.0 10.0 0.00 0.00 0.00 13 1008.9
20260509185121 94 357 5.0 9.0 0.00 0.00 0.00 12 1009.2
20260509184121 94 355 4.0 8.0 0.00 0.00 0.00 12 1009.3
20260509183121 94 4 2.0 6.0 0.00 0.00 0.00 13 1009.5
20260509182122 92 357 4.0 8.0 0.00 0.00 0.00 14 1009.7
20260509181121 92 360 4.0 9.0 0.00 0.00 0.00 13 1009.8
20260509180121 91 1 1.0 3.0 0.00 0.00 0.00 14 1010.0